Glendale Luke AFB, AZ

8:23 PM MST on November 14, 2019 (GMT -0700)
Luke Air Force Base

Weather History for KLUF - September, 2019

Change the Weather History Date:

Monday, September 9, 2019

  Actual Average Record
Temperature  
Mean Temperature 89 °F -  
Max Temperature 97 °F 104 °F 112 °F (1969)
Min Temperature 81 °F 70 °F 54 °F (1920)
Cooling Degree Days 24    
Growing Degree Days 39 (Base 50)    
Moisture  
Dew Point 63 °F    
Average Humidity 42    
Maximum Humidity 69    
Minimum Humidity 25    
Precipitation  
Precipitation 0.00 in - - ()
Sea Level Pressure  
Sea Level Pressure 29.74 in    
Wind  
Wind Speed 10 mph (WSW)    
Max Wind Speed 18 mph    
Max Gust Speed -    
Visibility 10 miles    
Events      
Averages and records for this station are not official NWS values.
T = Trace of Precipitation, MM = Missing Value Source: NWS Daily Summary

Daily Weather History Graph

Daily Weather History Graph

Search for Another Location

Airport or City:

Astronomy

Sep. 09, 2019 Rise Set
Actual Time 6:08 AM MST 6:44 PM MST
Civil Twilight 5:43 AM MST 7:09 PM MST
Nautical Twilight 5:14 AM MST 7:38 PM MST
Astronomical Twilight 4:44 AM MST 8:08 PM MST
Moon 4:29 PM MST (9/9) 1:57 AM MST (9/9)
Length of Visible Light 13h 25m
Length of Day
12h 35m
Waxing Gibbous, 83% of the Moon is Illuminated
Sep 9
Waxing Gibbous
Sep 13
Full
Sep 21
Last Quarter
Sep 28
New
Oct 5
First Quarter

Hourly Weather History & Observations

Time (MST) Temp. Heat Index Dew Point Humidity Pressure Visibility Wind Dir Wind Speed Gust Speed Precip Events Conditions
12:58 AM 85.8 °F 85.9 °F 60.6 °F 43% 29.73 in 10.0 mi SW 17.3 mph - N/A   Clear
1:58 AM 83.8 °F 84.7 °F 62.6 °F 49% 29.74 in 10.0 mi SW 15.0 mph - N/A   Clear
2:58 AM 82.6 °F 84.9 °F 66.2 °F 58% 29.74 in 10.0 mi SW 18.4 mph - N/A   Clear
3:58 AM 81.3 °F 83.6 °F 66.9 °F 61% 29.76 in 10.0 mi West 10.4 mph - N/A   Clear
4:58 AM 81.3 °F 84.5 °F 68.9 °F 66% 29.77 in 10.0 mi Calm Calm - N/A   Clear
5:58 AM 81.1 °F 84.7 °F 70.0 °F 69% 29.79 in 10.0 mi West 8.1 mph - N/A   Clear
7:58 AM 84.7 °F 87.9 °F 68.2 °F 57% 29.83 in 10.0 mi North 3.5 mph - N/A   Clear
8:08 AM 84.2 °F 87.3 °F 68.0 °F 58% 29.83 in 10.0 mi NNE 4.6 mph - N/A   Partly Cloudy
8:14 AM 86.0 °F 89.4 °F 68.0 °F 55% 29.83 in 10.0 mi North 3.5 mph - N/A   Scattered Clouds
8:58 AM 85.3 °F 88.8 °F 68.7 °F 57% 29.83 in 10.0 mi WSW 3.5 mph - 0.00 in   Clear
9:58 AM 86.9 °F 89.9 °F 67.1 °F 52% 29.84 in 10.0 mi WSW 6.9 mph - N/A   Scattered Clouds
10:58 AM 90.0 °F 92.0 °F 65.1 °F 44% 29.83 in 10.0 mi SSE 5.8 mph - N/A   Scattered Clouds
11:58 AM 91.4 °F 92.8 °F 63.7 °F 40% 29.81 in 10.0 mi SE 5.8 mph - N/A   Scattered Clouds
12:58 PM 94.5 °F 94.0 °F 59.9 °F 31% 29.79 in 10.0 mi South 9.2 mph - N/A   Partly Cloudy
1:58 PM 95.7 °F 95.1 °F 58.3 °F 29% 29.75 in 10.0 mi South 4.6 mph - N/A   Partly Cloudy
2:58 PM 96.3 °F 95.5 °F 57.7 °F 28% 29.72 in 10.0 mi West 4.6 mph - N/A   Partly Cloudy
3:58 PM 97.3 °F 96.6 °F 57.7 °F 27% 29.70 in 10.0 mi SW 11.5 mph - N/A   Clear
4:58 PM 97.3 °F 96.6 °F 57.7 °F 27% 29.68 in 10.0 mi SW 5.8 mph - N/A   Partly Cloudy
5:58 PM 97.2 °F 95.6 °F 55.4 °F 25% 29.67 in 10.0 mi West 6.9 mph - N/A   Clear
6:58 PM 95.0 °F 93.7 °F 56.7 °F 28% 29.66 in 10.0 mi West 4.6 mph - N/A   Clear
7:58 PM 93.4 °F 91.8 °F 56.3 °F 29% 29.67 in 10.0 mi West 3.5 mph - N/A   Partly Cloudy
7:59 PM 93.2 °F 91.9 °F 57.2 °F 30% 29.67 in 10.0 mi West 3.5 mph - N/A   Light Drizzle
8:01 PM 93.2 °F 91.9 °F 57.2 °F 30% 29.67 in 10.0 mi West 3.5 mph - N/A   Partly Cloudy
8:51 PM 93.2 °F 91.3 °F 55.4 °F 28% 29.68 in 10.0 mi SW 9.2 mph - N/A   Mostly Cloudy
8:58 PM 93.6 °F 92.4 °F 57.4 °F 30% 29.68 in 10.0 mi WSW 11.5 mph - 0.00 in   Mostly Cloudy
9:08 PM 93.2 °F 92.6 °F 59.0 °F 32% 29.69 in 10.0 mi WSW 9.2 mph - N/A   Scattered Clouds
9:58 PM 91.0 °F 93.8 °F 66.0 °F 44% 29.70 in 10.0 mi WSW 16.1 mph - N/A   Clear
10:58 PM 89.4 °F 92.7 °F 67.6 °F 48% 29.72 in 10.0 mi WSW 16.1 mph - N/A   Clear
11:58 PM 87.3 °F 91.6 °F 69.1 °F 55% 29.72 in 10.0 mi WSW 12.7 mph - N/A   Clear